カタログに戻る

ATLAS 2 CENTAUR R/B(2)

運用中GEO
NORAD 23648·ROCKET BODY·🇺🇸 United States

打ち上げ Jul 31, 1995 から Cape Canaveral Space Force Station

Loading…

TLE

最新Source: Space-Track

元期: Sep 9, 2026, 02:32 UTC

1 23648U 95038C   26252.10577488 -.00000171  00000-0  00000-0 0  9995
2 23648  13.6755 344.6309 0021503 290.6798  69.1328  1.01264410 26931

AllMySatでATLAS 2 CENTAUR R/B(2)をリアルタイム追跡

Download on the App Store